Terminal Aerodrome Forecast
Issued by NWS

Home | Current Version | Previous Version | Graphics & Text | Print | Product List | Glossary Off
Versions: 1 2 3 4 5 6 7 8 9 10 11 12 13 14 15 16 17 18 19 20

000
FTUS43 KDDC 031405 AAC
TAFHYS
TAF AMD
KHYS 031405Z 0314/0412 03004KT P6SM VCSH OVC050
      TEMPO 0314/0318 3SM -SN BKN007
     FM031800 11007KT P6SM OVC003
     FM040000 VRB06KT P6SM BKN003
     FM040300 VRB06KT P6SM SKC=

USA.gov is the U.S. government's official web portal to all federal, state and local government web resources and services.